owner,sensor,date,latitude,longitude,vertical_datum,wind_speed,wind_to_direction,wind_speed_of_gust,qcFlag 
ADCP,ioos:station:wmo:42362:1,2015-11-01T00:30:00Z,27.7950,-90.6480,122.0,10.8,150.0,99.0,'11111222,11111222,11144222' 
ADCP,ioos:station:wmo:42362:1,2015-11-01T01:30:00Z,27.7950,-90.6480,122.0,10.8,150.0,99.0,'11111222,11111222,11144222' 
ADCP,ioos:station:wmo:42362:1,2015-11-01T02:30:00Z,27.7950,-90.6480,122.0,9.9,150.0,99.0,'11111222,11111222,11144222' 
ADCP,ioos:station:wmo:42362:1,2015-11-01T03:30:00Z,27.7950,-90.6480,122.0,10.1,150.0,99.0,'11111222,11111222,11144222' 
ADCP,ioos:station:wmo:42362:1,2015-11-01T04:30:00Z,27.7950,-90.6480,122.0,9.9,151.0,99.0,'11111222,11111222,11144222' 
ADCP,ioos:station:wmo:42362:1,2015-11-01T05:30:00Z,27.7950,-90.6480,122.0,9.8,158.0,99.0,'11111222,11111222,11144222' 
ADCP,ioos:station:wmo:42362:1,2015-11-01T06:30:00Z,27.7950,-90.6480,122.0,9.5,158.0,99.0,'11111222,11111222,11144222' 
ADCP,ioos:station:wmo:42362:1,2015-11-01T07:30:00Z,27.7950,-90.6480,122.0,10.1,160.0,99.0,'11111222,11111222,11144222' 
ADCP,ioos:station:wmo:42362:1,2015-11-01T08:30:00Z,27.7950,-90.6480,122.0,10.2,169.0,99.0,'11111222,11111222,11144222' 
ADCP,ioos:station:wmo:42362:1,2015-11-01T09:30:00Z,27.7950,-90.6480,122.0,9.3,170.0,99.0,'11111222,11111222,11144222' 
ADCP,ioos:station:wmo:42362:1,2015-11-01T10:30:00Z,27.7950,-90.6480,122.0,9.7,172.0,99.0,'11111222,11111222,11144222' 
ADCP,ioos:station:wmo:42362:1,2015-11-01T11:30:00Z,27.7950,-90.6480,122.0,8.2,205.0,99.0,'11111222,11111222,11144222' 
ADCP,ioos:station:wmo:42362:1,2015-11-01T12:30:00Z,27.7950,-90.6480,122.0,8.7,183.0,99.0,'11111222,11111222,11144222' 
ADCP,ioos:station:wmo:42362:1,2015-11-01T13:30:00Z,27.7950,-90.6480,122.0,19.6,274.0,99.0,'11111222,11111222,11144222' 
ADCP,ioos:station:wmo:42362:1,2015-11-01T14:30:00Z,27.7950,-90.6480,122.0,19.4,349.0,99.0,'11111222,11111222,11144222' 
ADCP,ioos:station:wmo:42362:1,2015-11-01T15:30:00Z,27.7950,-90.6480,122.0,14.6,357.0,99.0,'11111222,11111222,11144222' 
ADCP,ioos:station:wmo:42362:1,2015-11-01T16:30:00Z,27.7950,-90.6480,122.0,14.1,3.0,99.0,'11111222,11111222,11144222' 
ADCP,ioos:station:wmo:42362:1,2015-11-01T17:30:00Z,27.7950,-90.6480,122.0,16.6,91.0,99.0,'11111222,11111222,11144222' 
ADCP,ioos:station:wmo:42362:1,2015-11-01T18:30:00Z,27.7950,-90.6480,122.0,16.0,107.0,99.0,'11111222,11111222,11144222' 
ADCP,ioos:station:wmo:42362:1,2015-11-01T19:30:00Z,27.7950,-90.6480,122.0,8.2,33.0,99.0,'11111222,11111222,11144222' 
ADCP,ioos:station:wmo:42362:1,2015-11-01T20:30:00Z,27.7950,-90.6480,122.0,6.8,51.0,99.0,'11111222,11111222,11144222' 
ADCP,ioos:station:wmo:42362:1,2015-11-01T21:30:00Z,27.7950,-90.6480,122.0,6.7,87.0,99.0,'11111222,11111222,11144222' 
ADCP,ioos:station:wmo:42362:1,2015-11-01T22:30:00Z,27.7950,-90.6480,122.0,6.4,91.0,99.0,'11111222,11111222,11144222' 
ADCP,ioos:station:wmo:42362:1,2015-11-01T23:30:00Z,27.7950,-90.6480,122.0,6.4,116.0,99.0,'11111222,11111222,11144222' 
ADCP,ioos:station:wmo:42362:1,2015-11-02T00:30:00Z,27.7950,-90.6480,122.0,5.4,148.0,99.0,'11111222,11111222,11144222' 
ADCP,ioos:station:wmo:42362:1,2015-11-02T01:30:00Z,27.7950,-90.6480,122.0,5.2,168.0,99.0,'11111222,11111222,11144222' 
ADCP,ioos:station:wmo:42362:1,2015-11-02T02:30:00Z,27.7950,-90.6480,122.0,5.1,185.0,99.0,'11111222,11111222,11144222' 
ADCP,ioos:station:wmo:42362:1,2015-11-02T03:30:00Z,27.7950,-90.6480,122.0,5.8,205.0,99.0,'11111222,11111222,11144222' 
ADCP,ioos:station:wmo:42362:1,2015-11-02T04:30:00Z,27.7950,-90.6480,122.0,5.7,210.0,99.0,'11111222,11111222,11144222' 
ADCP,ioos:station:wmo:42362:1,2015-11-02T05:30:00Z,27.7950,-90.6480,122.0,6.9,247.0,99.0,'11111222,11111222,11144222' 
ADCP,ioos:station:wmo:42362:1,2015-11-02T06:30:00Z,27.7950,-90.6480,122.0,8.6,261.0,99.0,'11111222,11111222,11144222' 
ADCP,ioos:station:wmo:42362:1,2015-11-02T07:30:00Z,27.7950,-90.6480,122.0,9.9,251.0,99.0,'11111222,11111222,11144222' 
ADCP,ioos:station:wmo:42362:1,2015-11-02T08:30:00Z,27.7950,-90.6480,122.0,11.2,250.0,99.0,'11111222,11111222,11144222' 
ADCP,ioos:station:wmo:42362:1,2015-11-02T09:30:00Z,27.7950,-90.6480,122.0,10.5,252.0,99.0,'11111222,11111222,11144222' 
ADCP,ioos:station:wmo:42362:1,2015-11-02T10:30:00Z,27.7950,-90.6480,122.0,10.0,250.0,99.0,'11111222,11111222,11144222' 
ADCP,ioos:station:wmo:42362:1,2015-11-02T11:30:00Z,27.7950,-90.6480,122.0,10.0,250.0,99.0,'11111222,11111222,11144222' 
ADCP,ioos:station:wmo:42362:1,2015-11-02T12:30:00Z,27.7950,-90.6480,122.0,8.6,263.0,99.0,'11111222,11111222,11144222' 
ADCP,ioos:station:wmo:42362:1,2015-11-02T13:30:00Z,27.7950,-90.6480,122.0,7.2,274.0,99.0,'11111222,11111222,11144222' 
ADCP,ioos:station:wmo:42362:1,2015-11-02T14:30:00Z,27.7950,-90.6480,122.0,5.9,271.0,99.0,'11111222,11111222,11144222' 
ADCP,ioos:station:wmo:42362:1,2015-11-02T15:30:00Z,27.7950,-90.6480,122.0,4.8,273.0,99.0,'11111222,11111222,11144222' 
ADCP,ioos:station:wmo:42362:1,2015-11-02T16:30:00Z,27.7950,-90.6480,122.0,6.3,263.0,99.0,'11111222,11111222,11144222' 
ADCP,ioos:station:wmo:42362:1,2015-11-02T17:30:00Z,27.7950,-90.6480,122.0,6.4,261.0,99.0,'11111222,11111222,11144222' 
ADCP,ioos:station:wmo:42362:1,2015-11-02T18:30:00Z,27.7950,-90.6480,122.0,6.5,284.0,99.0,'11111222,11111222,11144222' 
ADCP,ioos:station:wmo:42362:1,2015-11-02T19:30:00Z,27.7950,-90.6480,122.0,7.3,303.0,99.0,'11111222,11111222,11144222' 
ADCP,ioos:station:wmo:42362:1,2015-11-02T20:30:00Z,27.7950,-90.6480,122.0,6.2,294.0,99.0,'11111222,11111222,11144222' 
ADCP,ioos:station:wmo:42362:1,2015-11-02T21:30:00Z,27.7950,-90.6480,122.0,5.6,294.0,99.0,'11111222,11111222,11144222' 
ADCP,ioos:station:wmo:42362:1,2015-11-02T22:30:00Z,27.7950,-90.6480,122.0,5.8,305.0,99.0,'11111222,11111222,11144222' 
ADCP,ioos:station:wmo:42362:1,2015-11-02T23:30:00Z,27.7950,-90.6480,122.0,5.8,313.0,99.0,'11111222,11111222,11144222' 
ADCP,ioos:station:wmo:42362:1,2015-11-03T00:30:00Z,27.7950,-90.6480,122.0,5.1,315.0,99.0,'11111222,11111222,11144222' 
ADCP,ioos:station:wmo:42362:1,2015-11-03T01:30:00Z,27.7950,-90.6480,122.0,5.3,325.0,99.0,'11111222,11111222,11144222' 
ADCP,ioos:station:wmo:42362:1,2015-11-03T02:30:00Z,27.7950,-90.6480,122.0,4.6,324.0,99.0,'11111222,11111222,11144222' 
ADCP,ioos:station:wmo:42362:1,2015-11-03T03:30:00Z,27.7950,-90.6480,122.0,3.7,321.0,99.0,'11111222,11111222,11144222' 
ADCP,ioos:station:wmo:42362:1,2015-11-03T04:30:00Z,27.7950,-90.6480,122.0,2.6,321.0,99.0,'11111222,11111222,11144222' 
ADCP,ioos:station:wmo:42362:1,2015-11-03T05:30:00Z,27.7950,-90.6480,122.0,2.2,303.0,99.0,'11111222,11111222,11144222' 
ADCP,ioos:station:wmo:42362:1,2015-11-03T06:30:00Z,27.7950,-90.6480,122.0,1.9,316.0,99.0,'11111222,11111222,11144222' 
ADCP,ioos:station:wmo:42362:1,2015-11-03T07:30:00Z,27.7950,-90.6480,122.0,2.0,319.0,99.0,'11111222,11111222,11144222' 
ADCP,ioos:station:wmo:42362:1,2015-11-03T08:30:00Z,27.7950,-90.6480,122.0,2.7,325.0,99.0,'11111222,11111222,11144222' 
ADCP,ioos:station:wmo:42362:1,2015-11-03T09:30:00Z,27.7950,-90.6480,122.0,2.3,328.0,99.0,'11111222,11111222,11144222' 
ADCP,ioos:station:wmo:42362:1,2015-11-03T10:30:00Z,27.7950,-90.6480,122.0,2.4,325.0,99.0,'11111222,11111222,11144222' 
ADCP,ioos:station:wmo:42362:1,2015-11-03T11:30:00Z,27.7950,-90.6480,122.0,1.8,317.0,99.0,'11111222,11111222,11144222' 
ADCP,ioos:station:wmo:42362:1,2015-11-03T12:30:00Z,27.7950,-90.6480,122.0,2.1,340.0,99.0,'11111222,11111222,11144222' 
ADCP,ioos:station:wmo:42362:1,2015-11-03T13:30:00Z,27.7950,-90.6480,122.0,0.3,352.0,99.0,'11111222,11111222,11144222' 
ADCP,ioos:station:wmo:42362:1,2015-11-03T14:30:00Z,27.7950,-90.6480,122.0,0.7,331.0,99.0,'11111222,11111222,11144222' 
ADCP,ioos:station:wmo:42362:1,2015-11-03T15:30:00Z,27.7950,-90.6480,122.0,0.4,343.0,99.0,'11111222,11111222,11144222' 
ADCP,ioos:station:wmo:42362:1,2015-11-03T16:30:00Z,27.7950,-90.6480,122.0,0.4,340.0,99.0,'11111222,11111222,11144222' 
ADCP,ioos:station:wmo:42362:1,2015-11-03T17:30:00Z,27.7950,-90.6480,122.0,0.7,334.0,99.0,'11111222,11111222,11144222' 
ADCP,ioos:station:wmo:42362:1,2015-11-03T18:30:00Z,27.7950,-90.6480,122.0,0.9,329.0,99.0,'11111222,11111222,11144222' 
ADCP,ioos:station:wmo:42362:1,2015-11-03T19:30:00Z,27.7950,-90.6480,122.0,0.8,330.0,99.0,'11111222,11111222,11144222' 
ADCP,ioos:station:wmo:42362:1,2015-11-03T20:30:00Z,27.7950,-90.6480,122.0,1.1,345.0,99.0,'11111222,11111222,11144222' 
ADCP,ioos:station:wmo:42362:1,2015-11-03T21:30:00Z,27.7950,-90.6480,122.0,1.9,6.0,99.0,'11111222,11111222,11144222' 
ADCP,ioos:station:wmo:42362:1,2015-11-03T22:30:00Z,27.7950,-90.6480,122.0,2.5,28.0,99.0,'11111222,11111222,11144222' 
ADCP,ioos:station:wmo:42362:1,2015-11-03T23:30:00Z,27.7950,-90.6480,122.0,3.5,20.0,99.0,'11111222,11111222,11144222' 
ADCP,ioos:station:wmo:42362:1,2015-11-04T00:30:00Z,27.7950,-90.6480,122.0,3.9,20.0,99.0,'11111222,11111222,11144222' 
ADCP,ioos:station:wmo:42362:1,2015-11-04T01:30:00Z,27.7950,-90.6480,122.0,4.2,19.0,99.0,'11111222,11111222,11144222' 
ADCP,ioos:station:wmo:42362:1,2015-11-04T02:30:00Z,27.7950,-90.6480,122.0,4.6,28.0,99.0,'11111222,11111222,11144222' 
ADCP,ioos:station:wmo:42362:1,2015-11-04T03:30:00Z,27.7950,-90.6480,122.0,5.7,52.0,99.0,'11111222,11111222,11144222' 
ADCP,ioos:station:wmo:42362:1,2015-11-04T04:30:00Z,27.7950,-90.6480,122.0,5.5,72.0,99.0,'11111222,11111222,11144222' 
ADCP,ioos:station:wmo:42362:1,2015-11-04T05:30:00Z,27.7950,-90.6480,122.0,5.0,73.0,99.0,'11111222,11111222,11144222' 
ADCP,ioos:station:wmo:42362:1,2015-11-04T06:30:00Z,27.7950,-90.6480,122.0,4.9,76.0,99.0,'11111222,11111222,11144222' 
ADCP,ioos:station:wmo:42362:1,2015-11-04T07:30:00Z,27.7950,-90.6480,122.0,4.7,89.0,99.0,'11111222,11111222,11144222' 
ADCP,ioos:station:wmo:42362:1,2015-11-04T08:30:00Z,27.7950,-90.6480,122.0,4.4,97.0,99.0,'11111222,11111222,11144222' 
ADCP,ioos:station:wmo:42362:1,2015-11-04T09:30:00Z,27.7950,-90.6480,122.0,3.8,92.0,99.0,'11111222,11111222,11144222' 
ADCP,ioos:station:wmo:42362:1,2015-11-04T10:30:00Z,27.7950,-90.6480,122.0,2.7,82.0,99.0,'11111222,11111222,11144222' 
ADCP,ioos:station:wmo:42362:1,2015-11-04T11:30:00Z,27.7950,-90.6480,122.0,2.4,76.0,99.0,'11111222,11111222,11144222' 
ADCP,ioos:station:wmo:42362:1,2015-11-04T12:30:00Z,27.7950,-90.6480,122.0,2.3,74.0,99.0,'11111222,11111222,11144222' 
ADCP,ioos:station:wmo:42362:1,2015-11-04T13:30:00Z,27.7950,-90.6480,122.0,1.8,72.0,99.0,'11111222,11111222,11144222' 
ADCP,ioos:station:wmo:42362:1,2015-11-04T14:30:00Z,27.7950,-90.6480,122.0,1.9,75.0,99.0,'11111222,11111222,11144222' 
ADCP,ioos:station:wmo:42362:1,2015-11-04T15:30:00Z,27.7950,-90.6480,122.0,2.1,77.0,99.0,'11111222,11111222,11144222' 
ADCP,ioos:station:wmo:42362:1,2015-11-04T16:30:00Z,27.7950,-90.6480,122.0,2.5,86.0,99.0,'11111222,11111222,11144222' 
ADCP,ioos:station:wmo:42362:1,2015-11-04T17:30:00Z,27.7950,-90.6480,122.0,2.5,86.0,99.0,'11111222,11111222,11144222' 
ADCP,ioos:station:wmo:42362:1,2015-11-04T18:30:00Z,27.7950,-90.6480,122.0,3.2,92.0,99.0,'11111222,11111222,11144222' 
ADCP,ioos:station:wmo:42362:1,2015-11-04T19:30:00Z,27.7950,-90.6480,122.0,3.1,91.0,99.0,'11111222,11111222,11144222' 
ADCP,ioos:station:wmo:42362:1,2015-11-04T20:30:00Z,27.7950,-90.6480,122.0,3.3,83.0,99.0,'11111222,11111222,11144222' 
ADCP,ioos:station:wmo:42362:1,2015-11-04T21:30:00Z,27.7950,-90.6480,122.0,2.7,69.0,99.0,'11111222,11111222,11144222' 
ADCP,ioos:station:wmo:42362:1,2015-11-04T22:30:00Z,27.7950,-90.6480,122.0,3.5,68.0,99.0,'11111222,11111222,11144222' 
ADCP,ioos:station:wmo:42362:1,2015-11-04T23:30:00Z,27.7950,-90.6480,122.0,3.6,76.0,99.0,'11111222,11111222,11144222' 
ADCP,ioos:station:wmo:42362:1,2015-11-05T00:30:00Z,27.7950,-90.6480,122.0,4.0,71.0,99.0,'11111222,11111222,11144222' 
ADCP,ioos:station:wmo:42362:1,2015-11-05T01:30:00Z,27.7950,-90.6480,122.0,5.2,69.0,99.0,'11111222,11111222,11144222' 
ADCP,ioos:station:wmo:42362:1,2015-11-05T02:30:00Z,27.7950,-90.6480,122.0,5.4,68.0,99.0,'11111222,11111222,11144222' 
ADCP,ioos:station:wmo:42362:1,2015-11-05T03:30:00Z,27.7950,-90.6480,122.0,4.8,71.0,99.0,'11111222,11111222,11144222' 
ADCP,ioos:station:wmo:42362:1,2015-11-05T04:30:00Z,27.7950,-90.6480,122.0,4.6,68.0,99.0,'11111222,11111222,11144222' 
ADCP,ioos:station:wmo:42362:1,2015-11-05T05:30:00Z,27.7950,-90.6480,122.0,4.2,87.0,99.0,'11111222,11111222,11144222' 
ADCP,ioos:station:wmo:42362:1,2015-11-05T06:30:00Z,27.7950,-90.6480,122.0,4.7,90.0,99.0,'11111222,11111222,11144222' 
ADCP,ioos:station:wmo:42362:1,2015-11-05T07:30:00Z,27.7950,-90.6480,122.0,6.1,107.0,99.0,'11111222,11111222,11144222' 
ADCP,ioos:station:wmo:42362:1,2015-11-05T08:30:00Z,27.7950,-90.6480,122.0,6.0,107.0,99.0,'11111222,11111222,11144222' 
ADCP,ioos:station:wmo:42362:1,2015-11-05T09:30:00Z,27.7950,-90.6480,122.0,6.4,110.0,99.0,'11111222,11111222,11144222' 
ADCP,ioos:station:wmo:42362:1,2015-11-05T10:30:00Z,27.7950,-90.6480,122.0,6.6,111.0,99.0,'11111222,11111222,11144222' 
ADCP,ioos:station:wmo:42362:1,2015-11-05T11:30:00Z,27.7950,-90.6480,122.0,6.2,108.0,99.0,'11111222,11111222,11144222' 
ADCP,ioos:station:wmo:42362:1,2015-11-05T12:30:00Z,27.7950,-90.6480,122.0,6.5,101.0,99.0,'11111222,11111222,11144222' 
ADCP,ioos:station:wmo:42362:1,2015-11-05T13:30:00Z,27.7950,-90.6480,122.0,5.7,100.0,99.0,'11111222,11111222,11144222' 
ADCP,ioos:station:wmo:42362:1,2015-11-05T14:30:00Z,27.7950,-90.6480,122.0,6.3,97.0,99.0,'11111222,11111222,11144222' 
ADCP,ioos:station:wmo:42362:1,2015-11-05T15:30:00Z,27.7950,-90.6480,122.0,6.9,92.0,99.0,'11111222,11111222,11144222' 
ADCP,ioos:station:wmo:42362:1,2015-11-05T16:30:00Z,27.7950,-90.6480,122.0,7.5,96.0,99.0,'11111222,11111222,11144222' 
ADCP,ioos:station:wmo:42362:1,2015-11-05T17:30:00Z,27.7950,-90.6480,122.0,6.7,95.0,99.0,'11111222,11111222,11144222' 
ADCP,ioos:station:wmo:42362:1,2015-11-05T18:30:00Z,27.7950,-90.6480,122.0,7.2,100.0,99.0,'11111222,11111222,11144222' 
ADCP,ioos:station:wmo:42362:1,2015-11-05T19:30:00Z,27.7950,-90.6480,122.0,7.1,100.0,99.0,'11111222,11111222,11144222' 
ADCP,ioos:station:wmo:42362:1,2015-11-05T20:30:00Z,27.7950,-90.6480,122.0,6.4,104.0,99.0,'11111222,11111222,11144222' 
ADCP,ioos:station:wmo:42362:1,2015-11-05T21:30:00Z,27.7950,-90.6480,122.0,6.9,102.0,99.0,'11111222,11111222,11144222' 
ADCP,ioos:station:wmo:42362:1,2015-11-05T22:30:00Z,27.7950,-90.6480,122.0,6.4,99.0,99.0,'11111222,11111222,11144222' 
ADCP,ioos:station:wmo:42362:1,2015-11-05T23:30:00Z,27.7950,-90.6480,122.0,6.7,99.0,99.0,'11111222,11111222,11144222' 
ADCP,ioos:station:wmo:42362:1,2015-11-06T00:30:00Z,27.7950,-90.6480,122.0,7.3,98.0,99.0,'11111222,11111222,11144222' 
ADCP,ioos:station:wmo:42362:1,2015-11-06T01:30:00Z,27.7950,-90.6480,122.0,7.6,96.0,99.0,'11111222,11111222,11144222' 
ADCP,ioos:station:wmo:42362:1,2015-11-06T02:30:00Z,27.7950,-90.6480,122.0,7.9,98.0,99.0,'11111222,11111222,11144222' 
ADCP,ioos:station:wmo:42362:1,2015-11-06T03:30:00Z,27.7950,-90.6480,122.0,8.8,103.0,99.0,'11111222,11111222,11144222' 
ADCP,ioos:station:wmo:42362:1,2015-11-06T04:30:00Z,27.7950,-90.6480,122.0,9.2,109.0,99.0,'11111222,11111222,11144222' 
ADCP,ioos:station:wmo:42362:1,2015-11-06T05:30:00Z,27.7950,-90.6480,122.0,8.9,111.0,99.0,'11111222,11111222,11144222' 
ADCP,ioos:station:wmo:42362:1,2015-11-06T06:30:00Z,27.7950,-90.6480,122.0,7.8,107.0,99.0,'11111222,11111222,11144222' 
ADCP,ioos:station:wmo:42362:1,2015-11-06T07:30:00Z,27.7950,-90.6480,122.0,6.9,107.0,99.0,'11111222,11111222,11144222' 
ADCP,ioos:station:wmo:42362:1,2015-11-06T08:30:00Z,27.7950,-90.6480,122.0,7.2,103.0,99.0,'11111222,11111222,11144222' 
ADCP,ioos:station:wmo:42362:1,2015-11-06T09:30:00Z,27.7950,-90.6480,122.0,7.0,102.0,99.0,'11111222,11111222,11144222' 
ADCP,ioos:station:wmo:42362:1,2015-11-06T10:30:00Z,27.7950,-90.6480,122.0,6.3,98.0,99.0,'11111222,11111222,11144222' 
ADCP,ioos:station:wmo:42362:1,2015-11-06T11:30:00Z,27.7950,-90.6480,122.0,5.9,91.0,99.0,'11111222,11111222,11144222' 
ADCP,ioos:station:wmo:42362:1,2015-11-06T12:30:00Z,27.7950,-90.6480,122.0,7.5,96.0,99.0,'11111222,11111222,11144222' 
ADCP,ioos:station:wmo:42362:1,2015-11-06T13:30:00Z,27.7950,-90.6480,122.0,9.0,101.0,99.0,'11111222,11111222,11144222' 
ADCP,ioos:station:wmo:42362:1,2015-11-06T14:30:00Z,27.7950,-90.6480,122.0,8.7,102.0,99.0,'11111222,11111222,11144222' 
ADCP,ioos:station:wmo:42362:1,2015-11-06T15:30:00Z,27.7950,-90.6480,122.0,8.3,107.0,99.0,'11111222,11111222,11144222' 
ADCP,ioos:station:wmo:42362:1,2015-11-06T16:30:00Z,27.7950,-90.6480,122.0,8.7,110.0,99.0,'11111222,11111222,11144222' 
ADCP,ioos:station:wmo:42362:1,2015-11-06T17:30:00Z,27.7950,-90.6480,122.0,8.2,110.0,99.0,'11111222,11111222,11144222' 
ADCP,ioos:station:wmo:42362:1,2015-11-06T18:30:00Z,27.7950,-90.6480,122.0,7.2,107.0,99.0,'11111222,11111222,11144222' 
ADCP,ioos:station:wmo:42362:1,2015-11-06T19:30:00Z,27.7950,-90.6480,122.0,7.2,100.0,99.0,'11111222,11111222,11144222' 
ADCP,ioos:station:wmo:42362:1,2015-11-06T20:30:00Z,27.7950,-90.6480,122.0,6.9,97.0,99.0,'11111222,11111222,11144222' 
ADCP,ioos:station:wmo:42362:1,2015-11-06T21:30:00Z,27.7950,-90.6480,122.0,8.4,100.0,99.0,'11111222,11111222,11144222' 
ADCP,ioos:station:wmo:42362:1,2015-11-06T22:30:00Z,27.7950,-90.6480,122.0,7.3,94.0,99.0,'11111222,11111222,11144222' 
ADCP,ioos:station:wmo:42362:1,2015-11-06T23:30:00Z,27.7950,-90.6480,122.0,7.4,91.0,99.0,'11111222,11111222,11144222' 
ADCP,ioos:station:wmo:42362:1,2015-11-07T00:30:00Z,27.7950,-90.6480,122.0,7.1,87.0,99.0,'11111222,11111222,11144222' 
ADCP,ioos:station:wmo:42362:1,2015-11-07T01:30:00Z,27.7950,-90.6480,122.0,8.3,89.0,99.0,'11111222,11111222,11144222' 
ADCP,ioos:station:wmo:42362:1,2015-11-07T02:30:00Z,27.7950,-90.6480,122.0,8.2,88.0,99.0,'11111222,11111222,11144222' 
ADCP,ioos:station:wmo:42362:1,2015-11-07T03:30:00Z,27.7950,-90.6480,122.0,7.9,92.0,99.0,'11111222,11111222,11144222' 
ADCP,ioos:station:wmo:42362:1,2015-11-07T04:30:00Z,27.7950,-90.6480,122.0,8.3,98.0,99.0,'11111222,11111222,11144222' 
ADCP,ioos:station:wmo:42362:1,2015-11-07T05:30:00Z,27.7950,-90.6480,122.0,7.7,97.0,99.0,'11111222,11111222,11144222' 
ADCP,ioos:station:wmo:42362:1,2015-11-07T06:30:00Z,27.7950,-90.6480,122.0,7.3,93.0,99.0,'11111222,11111222,11144222' 
ADCP,ioos:station:wmo:42362:1,2015-11-07T07:30:00Z,27.7950,-90.6480,122.0,6.7,87.0,99.0,'11111222,11111222,11144222' 
ADCP,ioos:station:wmo:42362:1,2015-11-07T08:30:00Z,27.7950,-90.6480,122.0,6.5,90.0,99.0,'11111222,11111222,11144222' 
ADCP,ioos:station:wmo:42362:1,2015-11-07T09:30:00Z,27.7950,-90.6480,122.0,7.3,89.0,99.0,'11111222,11111222,11144222' 
ADCP,ioos:station:wmo:42362:1,2015-11-07T10:30:00Z,27.7950,-90.6480,122.0,6.8,88.0,99.0,'11111222,11111222,11144222' 
ADCP,ioos:station:wmo:42362:1,2015-11-07T11:30:00Z,27.7950,-90.6480,122.0,7.2,90.0,99.0,'11111222,11111222,11144222' 
ADCP,ioos:station:wmo:42362:1,2015-11-07T12:30:00Z,27.7950,-90.6480,122.0,8.2,94.0,99.0,'11111222,11111222,11144222' 
ADCP,ioos:station:wmo:42362:1,2015-11-07T13:30:00Z,27.7950,-90.6480,122.0,11.1,151.0,99.0,'11111222,11111222,11144222' 
ADCP,ioos:station:wmo:42362:1,2015-11-07T14:30:00Z,27.7950,-90.6480,122.0,5.5,126.0,99.0,'11111222,11111222,11144222' 
ADCP,ioos:station:wmo:42362:1,2015-11-07T15:30:00Z,27.7950,-90.6480,122.0,3.4,109.0,99.0,'11111222,11111222,11144222' 
ADCP,ioos:station:wmo:42362:1,2015-11-07T16:30:00Z,27.7950,-90.6480,122.0,3.3,59.0,99.0,'11111222,11111222,11144222' 
ADCP,ioos:station:wmo:42362:1,2015-11-07T17:30:00Z,27.7950,-90.6480,122.0,6.5,99.0,99.0,'11111222,11111222,11144222' 
ADCP,ioos:station:wmo:42362:1,2015-11-07T18:30:00Z,27.7950,-90.6480,122.0,4.5,63.0,99.0,'11111222,11111222,11144222' 
ADCP,ioos:station:wmo:42362:1,2015-11-07T20:30:00Z,27.7950,-90.6480,122.0,11.5,98.0,99.0,'11111222,11111222,11144222' 
ADCP,ioos:station:wmo:42362:1,2015-11-07T21:30:00Z,27.7950,-90.6480,122.0,7.0,72.0,99.0,'11111222,11111222,11144222' 
ADCP,ioos:station:wmo:42362:1,2015-11-07T22:30:00Z,27.7950,-90.6480,122.0,6.1,100.0,99.0,'11111222,11111222,11144222' 
ADCP,ioos:station:wmo:42362:1,2015-11-07T23:30:00Z,27.7950,-90.6480,122.0,5.4,79.0,99.0,'11111222,11111222,11144222' 
ADCP,ioos:station:wmo:42362:1,2015-11-08T00:30:00Z,27.7950,-90.6480,122.0,5.7,89.0,99.0,'11111222,11111222,11144222' 
ADCP,ioos:station:wmo:42362:1,2015-11-08T01:30:00Z,27.7950,-90.6480,122.0,8.8,124.0,99.0,'11111222,11111222,11144222' 
ADCP,ioos:station:wmo:42362:1,2015-11-08T02:30:00Z,27.7950,-90.6480,122.0,99.0,358.0,99.0,'11144222,11111222,11144222' 
ADCP,ioos:station:wmo:42362:1,2015-11-08T03:30:00Z,27.7950,-90.6480,122.0,99.0,209.0,99.0,'11144222,11111222,11144222' 
ADCP,ioos:station:wmo:42362:1,2015-11-08T04:30:00Z,27.7950,-90.6480,122.0,99.0,104.0,99.0,'11144222,11111222,11144222' 
ADCP,ioos:station:wmo:42362:1,2015-11-08T05:30:00Z,27.7950,-90.6480,122.0,4.6,246.0,99.0,'11111222,11111222,11144222' 
ADCP,ioos:station:wmo:42362:1,2015-11-08T06:30:00Z,27.7950,-90.6480,122.0,6.1,217.0,99.0,'11111222,11111222,11144222' 
ADCP,ioos:station:wmo:42362:1,2015-11-08T07:30:00Z,27.7950,-90.6480,122.0,11.4,332.0,99.0,'11111222,11111222,11144222' 
ADCP,ioos:station:wmo:42362:1,2015-11-08T08:30:00Z,27.7950,-90.6480,122.0,14.7,16.0,99.0,'11111222,11111222,11144222' 
ADCP,ioos:station:wmo:42362:1,2015-11-08T09:30:00Z,27.7950,-90.6480,122.0,13.7,19.0,99.0,'11111222,11111222,11144222' 
ADCP,ioos:station:wmo:42362:1,2015-11-08T10:30:00Z,27.7950,-90.6480,122.0,11.9,30.0,99.0,'11111222,11111222,11144222' 
ADCP,ioos:station:wmo:42362:1,2015-11-08T11:30:00Z,27.7950,-90.6480,122.0,8.3,18.0,99.0,'11111222,11111222,11144222' 
ADCP,ioos:station:wmo:42362:1,2015-11-08T12:30:00Z,27.7950,-90.6480,122.0,6.5,3.0,99.0,'11111222,11111222,11144222' 
ADCP,ioos:station:wmo:42362:1,2015-11-08T13:30:00Z,27.7950,-90.6480,122.0,7.0,358.0,99.0,'11111222,11111222,11144222' 
ADCP,ioos:station:wmo:42362:1,2015-11-08T14:30:00Z,27.7950,-90.6480,122.0,12.2,360.0,99.0,'11111222,11144222,11144222' 
ADCP,ioos:station:wmo:42362:1,2015-11-08T15:30:00Z,27.7950,-90.6480,122.0,12.5,358.0,99.0,'11111222,11111222,11144222' 
ADCP,ioos:station:wmo:42362:1,2015-11-08T16:30:00Z,27.7950,-90.6480,122.0,14.2,356.0,99.0,'11111222,11111222,11144222' 
ADCP,ioos:station:wmo:42362:1,2015-11-08T17:30:00Z,27.7950,-90.6480,122.0,14.6,352.0,99.0,'11111222,11111222,11144222' 
ADCP,ioos:station:wmo:42362:1,2015-11-08T18:30:00Z,27.7950,-90.6480,122.0,14.0,350.0,99.0,'11111222,11111222,11144222' 
ADCP,ioos:station:wmo:42362:1,2015-11-08T19:30:00Z,27.7950,-90.6480,122.0,12.2,347.0,99.0,'11111222,11111222,11144222' 
ADCP,ioos:station:wmo:42362:1,2015-11-08T20:30:00Z,27.7950,-90.6480,122.0,10.4,342.0,99.0,'11111222,11111222,11144222' 
ADCP,ioos:station:wmo:42362:1,2015-11-08T21:30:00Z,27.7950,-90.6480,122.0,9.5,342.0,99.0,'11111222,11111222,11144222' 
ADCP,ioos:station:wmo:42362:1,2015-11-08T22:30:00Z,27.7950,-90.6480,122.0,10.1,340.0,99.0,'11111222,11111222,11144222' 
ADCP,ioos:station:wmo:42362:1,2015-11-08T23:30:00Z,27.7950,-90.6480,122.0,10.8,341.0,99.0,'11111222,11111222,11144222' 
ADCP,ioos:station:wmo:42362:1,2015-11-09T00:30:00Z,27.7950,-90.6480,122.0,11.4,344.0,99.0,'11111222,11111222,11144222' 
ADCP,ioos:station:wmo:42362:1,2015-11-09T01:30:00Z,27.7950,-90.6480,122.0,11.6,346.0,99.0,'11111222,11111222,11144222' 
ADCP,ioos:station:wmo:42362:1,2015-11-09T02:30:00Z,27.7950,-90.6480,122.0,11.8,349.0,99.0,'11111222,11111222,11144222' 
ADCP,ioos:station:wmo:42362:1,2015-11-09T03:30:00Z,27.7950,-90.6480,122.0,11.3,357.0,99.0,'11111222,11111222,11144222' 
ADCP,ioos:station:wmo:42362:1,2015-11-09T04:30:00Z,27.7950,-90.6480,122.0,10.1,360.0,99.0,'11111222,11144222,11144222' 
ADCP,ioos:station:wmo:42362:1,2015-11-09T05:30:00Z,27.7950,-90.6480,122.0,9.3,359.0,99.0,'11111222,11111222,11144222' 
ADCP,ioos:station:wmo:42362:1,2015-11-09T06:30:00Z,27.7950,-90.6480,122.0,7.7,4.0,99.0,'11111222,11111222,11144222' 
ADCP,ioos:station:wmo:42362:1,2015-11-09T07:30:00Z,27.7950,-90.6480,122.0,6.0,7.0,99.0,'11111222,11111222,11144222' 
ADCP,ioos:station:wmo:42362:1,2015-11-09T08:30:00Z,27.7950,-90.6480,122.0,5.6,354.0,99.0,'11111222,11111222,11144222' 
ADCP,ioos:station:wmo:42362:1,2015-11-09T09:30:00Z,27.7950,-90.6480,122.0,5.6,349.0,99.0,'11111222,11111222,11144222' 